Flag for Norway Weather past 2 weeks in Kvernaland, Norway

Now
43 °F

Sunny.


Feels Like: 40 °F
Forecast: 34 / 42 °F
Wind: 5 mph from Northwest

Location: Stavanger / Sola

Current Time: Mar 4, 2015 at 4:54:57 PM

Latest Report: Mar 4, 2015 at 4:00 PM


Visibility: 14 mi

Pressure: 30.09 "Hg

Humidity: 76%

Dew point: 36 °F

Location of KvernalandLocation

Historic Weather in Kvernaland — Graph

°F

Kvernaland temperature yesterday

Maximum temperature yesterday: 42 °F (at 2:00 PM)
Minimum temperature yesterday: 33 °F (at 5:00 AM)
Average temperature yesterday: 37 °F

Past Weeks' High & Low Weather Summary

 TemperatureHumidityPressure
High46 °F (Feb 19, 12:00 AM)97% (Feb 18, 10:00 AM)30.30 "Hg (Feb 18, 10:00 AM)
Low33 °F (Mar 3, 5:00 AM)52% (Feb 22, 11:00 AM)28.70 "Hg (Feb 23, 5:00 AM)
Average41 °F87%29.48 "Hg
* Reported Feb 17 3:00 PM — Mar 4 3:00 PM, Kvernaland, Weather by CustomWeather, © 2015

Note: Actual official high and low records may vary slightly from our data, if they occured in-between our weather recording intervals... More about our weather records

Advertising

Kvernaland weather history for previous 24 hours

 ConditionsComfort  
Time TempWeatherWind HumidityBarometerVisibility
3:00 PM
Wed, Mar 4
43 °FSunny.6 mph75%30.06 "Hg12 mi
2:00 PM42 °FSunny.6 mph73%30.02 "Hg22 mi
1:00 PM42 °FSunny.6 mph69%29.98 "Hg18 mi
12:00 PM41 °FSunny.5 mph68%29.93 "Hg18 mi
11:00 AM40 °FSunny.5 mph76%29.90 "Hg22 mi
10:00 AM38 °FSunny.No wind80%29.85 "Hg17 mi
9:00 AM35 °FSunny.2 mph88%29.80 "Hg22 mi
8:00 AM35 °FLight rain. Fog.2 mph92%29.76 "Hg3 mi
7:00 AM36 °FRain showers. Overcast.1 mph90%29.72 "Hg14 mi
6:00 AM35 °FChilly.2 mph90%29.69 "Hg17 mi
5:00 AM36 °FOvercast.5 mph86%29.67 "Hg19 mi
3:00 AM34 °FChilly.5 mph88%29.65 "Hg22 mi
2:00 AM35 °FRain showers. Passing clouds.5 mph86%29.64 "Hg14 mi
1:00 AM35 °FChilly.5 mph87%29.65 "Hg17 mi
11:00 PM
Tue, Mar 3
35 °FChilly.3 mph88%29.64 "Hg11 mi
10:00 PM36 °FPassing clouds.3 mph85%29.63 "Hg18 mi
9:00 PM38 °FRain showers. Passing clouds.2 mph73%29.62 "Hg25 mi
8:00 PM35 °FPassing clouds.2 mph90%29.62 "Hg10 mi
7:00 PM37 °FPassing clouds.3 mph86%29.61 "Hg12 mi
6:00 PM40 °FRain showers. Cloudy.2 mph78%29.59 "Hg15 mi
5:00 PM41 °FSunny.5 mph81%29.58 "Hg15 mi
4:00 PM39 °FRain showers. Cloudy.3 mph78%29.59 "Hg28 mi
Weather by CustomWeather, © 2015

See weather overviewHow to use our weather pages